Weather History for KBZN - October, 2014

Change the Weather History Date:

Wednesday, October 15, 2014

  Actual Average Record
Temperature  
Mean Temperature 55 °F 46 °F  
Max Temperature 74 °F 62 °F 82 °F (1991)
Min Temperature 36 °F 31 °F 18 °F (2002)
Degree Days  
Heating Degree Days 10    
Month to date heating degree days 229  
Since 1 July heating degree days 620  
Cooling Degree Days 0    
Month to date cooling degree days 0  
Year to date cooling degree days 187  
Growing Degree Days 6 (Base 50)    
Moisture  
Dew Point 32 °F    
Average Humidity 50    
Maximum Humidity 85    
Minimum Humidity 14    
Precipitation  
Precipitation 0.01 in 0.04 in 1.24 in (1935)
Month to date precipitation 0.21 0.60  
Year to date precipitation 13.82 12.21  
Snow  
Snow 0.00 in 0.00 in 3.30 in (1994)
Month to date snowfall 0.0 0.7  
Since 1 July snowfall T 1.0  
Since 1 September snowfall T 1.0  
Snow Depth 0.00 in    
Sea Level Pressure  
Sea Level Pressure 29.72 in    
Wind  
Wind Speed 11 mph (SSW)    
Max Wind Speed 38 mph    
Max Gust Speed 49 mph    
Visibility 10 miles    
Events Rain    
T = Trace of Precipitation, MM = Missing Value Source: NWS Daily Summary

Daily Weather History Graph

Daily Weather History Graph

Search for Another Location

Airport or City:

Trip Planner

Search our weather history database for the weather conditions in past years. The results will help you decide how hot, cold, wet, or windy it might be!

Date:

Astronomy

Oct. 15, 2014 Rise Set
Actual Time 7:41 AM MDT 6:38 PM MDT
Civil Twilight 7:11 AM MDT 7:08 PM MDT
Nautical Twilight 6:36 AM MDT 7:43 PM MDT
Astronomical Twilight 6:02 AM MDT 8:17 PM MDT
Moon No Moon Rise 2:32 PM MDT (10/15)
Length of Visible Light 11h 57m
Length of Day
10h 57m
Waning Gibbous, 51% of the Moon is Illuminated
Oct 15
Waning Gibbous
Oct 15
Last Quarter
Oct 23
New
Oct 30
First Quarter
Nov 6
Full

Hourly Weather History & Observations

Time (MDT) Temp. Windchill Dew Point Humidity Pressure Visibility Wind Dir Wind Speed Gust Speed Precip Events Conditions
12:56 AM 39.0 °F 34.0 °F 33.1 °F 79% 29.78 in 10.0 mi SSE 6.9 mph - N/A   Clear
1:56 AM 39.9 °F - 33.1 °F 77% 29.77 in 10.0 mi Calm Calm - N/A   Clear
2:56 AM 41.0 °F 35.2 °F 34.0 °F 76% 29.73 in 10.0 mi SE 9.2 mph - N/A   Clear
3:56 AM 42.1 °F - 34.0 °F 73% 29.71 in 10.0 mi Calm Calm - N/A   Clear
4:56 AM 41.0 °F 39.0 °F 35.1 °F 79% 29.69 in 10.0 mi ENE 3.5 mph - N/A   Clear
5:56 AM 42.1 °F - 35.1 °F 76% 29.69 in 10.0 mi Calm Calm - N/A   Clear
6:56 AM 46.9 °F - 34.0 °F 61% 29.70 in 10.0 mi Variable 5.8 mph - N/A   Clear
7:56 AM 48.0 °F - 36.0 °F 63% 29.68 in 10.0 mi SE 13.8 mph - N/A   Clear
8:56 AM 51.1 °F - 37.0 °F 59% 29.66 in 10.0 mi SE 11.5 mph - N/A   Clear
9:56 AM 57.0 °F - 39.9 °F 53% 29.65 in 10.0 mi SE 6.9 mph - N/A   Clear
10:56 AM 62.1 °F - 39.9 °F 44% 29.62 in 10.0 mi SSE 8.1 mph - N/A   Clear
11:56 AM 69.1 °F - 30.0 °F 23% 29.62 in 10.0 mi South 11.5 mph - N/A   Clear
12:56 PM 72.0 °F - 28.0 °F 20% 29.60 in 10.0 mi South 17.3 mph 26.5 mph N/A   Clear
1:56 PM 72.0 °F - 27.0 °F 19% 29.57 in 10.0 mi SSW 13.8 mph - N/A   Clear
2:34 PM 72.0 °F - 24.1 °F 17% 29.62 in 10.0 mi SSW 20.7 mph 32.2 mph N/A   Clear
2:56 PM 73.0 °F - 21.9 °F 15% 29.55 in 10.0 mi SSW 24.2 mph 34.5 mph N/A   Clear
3:56 PM 72.0 °F - 19.9 °F 14% 29.53 in 10.0 mi SSW 29.9 mph 42.6 mph N/A   Clear
4:56 PM 69.1 °F - 19.9 °F 15% 29.56 in 10.0 mi SSW 28.8 mph 35.7 mph N/A   Scattered Clouds
5:56 PM 62.1 °F - 28.0 °F 28% 29.67 in 10.0 mi WSW 17.3 mph 36.8 mph N/A   Overcast
6:56 PM 55.9 °F - 35.1 °F 45% 29.76 in 10.0 mi WSW 19.6 mph 26.5 mph 0.00 in   Mostly Cloudy
7:56 PM 50.0 °F - 36.0 °F 59% 29.85 in 10.0 mi South 6.9 mph - 0.00 in   Overcast
8:56 PM 48.9 °F - 33.1 °F 54% 29.87 in 10.0 mi Variable 4.6 mph - N/A   Overcast
9:07 PM 43.0 °F 33.8 °F 37.0 °F 80% 29.92 in 9.0 mi West 23.0 mph 40.3 mph 0.01 in Rain Light Rain
9:18 PM 43.0 °F 34.2 °F 37.0 °F 80% 29.93 in 10.0 mi WNW 20.7 mph 33.4 mph 0.01 in Rain Light Rain
9:56 PM 43.0 °F 36.8 °F 34.0 °F 71% 29.93 in 10.0 mi West 11.5 mph - 0.01 in   Clear
10:56 PM 39.9 °F 36.7 °F 36.0 °F 86% 29.95 in 10.0 mi SSW 4.6 mph - N/A   Clear
11:56 PM 37.9 °F - 34.0 °F 86% 29.96 in 10.0 mi Calm Calm - N/A   Overcast